Regional Weather Roundup
Issued by NWS

Home | Current Version | Previous Version | Graphics & Text | Print | Product List | Glossary On
Versions: 1 2 3 4 5 6 7 8 9 10 11 12 13 14 15 16 17 18 19 20 21 22 23 24 25 26 27
000
ASUS45 KSLC 241110
RWRUT

UTAH REGIONAL WEATHER ROUNDUP
NATIONAL WEATHER SERVICE SALT LAKE CITY UT
500 AM MDT SUN SEP 24 2017

UTZ001>011-023>025-241200-

NORTHERN UTAH

CITY           SKY/WX    TMP DP  RH WIND       PRES   REMARKS
BRIGHAM CITY   CLOUDY    47  34  60 CALM      29.91S
HILL AFB       CLOUDY    43  40  90 CALM      29.89F
LOGAN          CLOUDY    43  38  82 N7        29.92S
OGDEN          CLOUDY    45  41  86 W6        29.89F
SALT LAKE CITY CLOUDY    46  44  93 CALM      29.89S
TOOELE VALLEY  RAIN      43  43 100 W5        29.92F
WENDOVER       CLOUDY    47  31  53 NW21      29.97S
HEBER CITY     MIX PCPN  39  36  87 E6        29.87F WCI  35
WEST JORDAN    CLOUDY    43  43 100 CALM      29.90S

$$

UTZ011>015-024>027-241200-

CENTRAL/NORTHEAST UTAH

CITY           SKY/WX    TMP DP  RH WIND       PRES   REMARKS
PROVO AIRPORT  LGT RAIN  42  40  92 S5        29.89F
MOAB/CANYONLAN CLOUDY    48  41  76 NW15      29.82R
DELTA          CLOUDY    41  37  87 SW5       29.93F
PRICE          CLOUDY    43  36  76 E8        29.86R
ROOSEVELT      TSTM      45  39  81 W13       29.85S
VERNAL         LGT RAIN  45  39  79 S12       29.85R

$$

UTZ013>016-019>022-027-241200-

SOUTHERN UTAH

CITY           SKY/WX    TMP DP  RH WIND       PRES   REMARKS
BRYCE CANYON   CLOUDY    33  29  85 NW16      29.94S WCI  23
CEDAR CITY     CLOUDY    36  36 100 CALM      29.96F
MILFORD        CLOUDY    39  38  96 S7        29.96S WCI  34
ST GEORGE      CLOUDY    44  35  70 S3        29.96S
HANKSVILLE     MOCLDY    48  32  53 SW7       29.85R
BLANDING         N/A     42  22  44 SW6       29.97S

$$

REGIONAL REPORTS     COLORADO/ARIZONA

CITY           SKY/WX    TMP DP  RH WIND       PRES   REMARKS
CRAIG, CO      CLOUDY    37  34  89 CALM      29.88F
GRAND JUNCTION CLEAR     38  38 100 E5        29.81S WCI  34
RIFLE, CO      CLEAR     40  38  93 CALM      29.84F
MONTROSE, CO   CLEAR     38  36  92 S5        29.88R WCI  34
CORTEZ, CO     CLEAR     37  35  92 E6        29.92R WCI  32
PAGE, AZ       CLEAR     50  29  44 W6        29.90R
GRAND CANYON   CLEAR     25  18  74 CALM      29.98R
KINGMAN, AZ    CLEAR     46  30  53 E8        29.96R
FLAGSTAFF, AZ  CLEAR     33  19  56 W5        29.97S WCI  29

$$

REGIONAL REPORTS    NEVADA/IDAHO/WYOMING

CITY           SKY/WX    TMP DP  RH WIND       PRES   REMARKS
LAS VEGAS, NV  CLEAR     56  33  42 CALM      29.94F
ELY, NY        MOCLDY    29  28  96 SE3       30.02S
ELKO, NV       CLEAR     33  27  78 CALM      30.04S
POCATELLO, ID  PTCLDY    36  34  92 CALM      29.99F
BURLEY, ID     MOCLDY    41  34  76 W7        30.00S
FORT BRIDGER,  CLOUDY    34  34 100 NE7       29.95S VSB 1/4 WCI  28
EVANSTON, WY   CLOUDY    35  35 100 E10       29.90F WCI  27
ROCK SPRINGS,  CLOUDY    33  31  92 NE23G32   29.91F WCI  21
KEMMERER, WY   LGT SNOW  32  32 100 NE17G25   29.94S WCI  21

$$




USA.gov is the U.S. government's official web portal to all federal, state and local government web resources and services.